Regional Weather Roundup
Issued by NWS

Home | Current Version | Previous Version | Text Only | Print | Product List | Glossary On
Versions: 1 2 3 4 5 6 7 8 9 10 11 12 13 14 15 16 17 18 19 20 21 22 23 24 25 26 27 28 29 30 31 32 33 34 35 36 37 38 39 40 41 42 43 44 45 46 47 48 49 50
000
ASUS46 KLOX 060312
RWRCA

SOUTHERN CALIFORNIA WEATHER ROUNDUP
NATIONAL WEATHER SERVICE OXNARD CALIFORNIA
700 PM PST THU MAR 05 2015

NOTE: "FAIR" INDICATES FEW OR NO CLOUDS BELOW 12,000 FEET WITH NO
SIGNIFICANT WEATHER AND/OR OBSTRUCTIONS TO VISIBILITY.

  -  STATIONS PRECEEDED BY AN ASTERISK (*) ARE NOT NWS OR FAA
     STATIONS AND ARE NOT SUBJECT TO NWS AND FAA QUALITY CONTROL.

CAZ041-042-087-060400-
LA AND ORANGE COUNTY COASTAL AREAS


CITY           SKY/WX    TMP DP  RH WIND       PRES   REMARKS
L.A. DOWNTOWN  CLEAR     65  28  24 NW3       30.17S
L.A. AIRPORT   CLEAR     63  35  35 W13       30.17F
LONG BEACH     CLEAR     65  30  27 NW10      30.16R

CITY           SKY/WX    TMP DP  RH WIND       PRES   REMARKS
AVALON           N/A     55 N/A N/A MISG        N/A
FULLERTON      CLEAR     68  18  14 NW5       30.15R
*GETTY CENTER    N/A    N/A N/A N/A NW3         N/A
HAWTHORNE      CLEAR     66  35  31 W6        30.17S
*LOS ALAMITOS  CLEAR     66  25  21 NW6       30.16R
*REDONDO BEACH   N/A     61  49  63 W3        30.18S
SANTA ANA      CLEAR     69  34  27 CALM      30.16R
STA MONICA APT CLEAR     65  35  33 W5        30.17S
*UCLA            N/A     59  25  27 N6        30.15S

$$

CAZ547-548-048-060400-
LA COUNTY VALLEYS AND INLAND EMPIRE


CITY           SKY/WX    TMP DP  RH WIND       PRES   REMARKS
BURBANK        CLEAR     64  23  21 CALM      30.18R
VAN NUYS       CLEAR     65  22  19 CALM      30.17S

CITY           SKY/WX    TMP DP  RH WIND       PRES   REMARKS
CORONA AIRPORT CLEAR     53  35  50 CALM      30.18R
*CHATSWORTH      N/A     69  23  17 NE5       30.17F
CHINO          CLEAR     61  35  37 VRB3      30.18R
*CLAREMONT       N/A     57  29  34 N3          N/A
MARCH AFB      CLEAR     64  17  16 VRB1      30.19R
*NORTHRIDGE      N/A     68  14  12 N6G13       N/A
ONTARIO        CLEAR     63  31  30 N6        30.17S
*PASADENA        N/A     66  25  20 CALM        N/A
POMONA         CLEAR     63  28  27 CALM      30.21R
RIVERSIDE      CLEAR     65  14  14 E6        30.18R
SAN BERNARDINO NOT AVBL
*WHITEMAN AP   CLEAR     64  23  20 CALM      30.21S
*WHITTIER HILL   N/A     63  19  18 N9          N/A
*WOODLAND HILL   N/A     59  23  25 S1          N/A

$$

CAZ054-055-060400-
LA AND SAN BERNARDINO COUNTY MOUNTAINS


CITY           SKY/WX    TMP DP  RH WIND       PRES   REMARKS
*ACTON           N/A     61  10  13 N10G24      N/A
*BIG BEAR AIRP CLEAR     30  12  47 CALM      30.36S
*BIG PINES       N/A     33   8  35 CALM        N/A
MT WILSON NWS    N/A     43   5  21 MISG        N/A
SANDBERG       CLEAR     52  16  24 E16       30.30S

$$

CAZ028-029-059-060-099-060400-
ANTELOPE VALLEY AND SURROUNDING AREAS


CITY           SKY/WX    TMP DP  RH WIND       PRES   REMARKS
LANCASTER      CLEAR     50  23  34 N8        30.28R
PALMDALE       CLEAR     50  22  33 SE8       30.28R

CITY           SKY/WX    TMP DP  RH WIND       PRES   REMARKS
29 PALMS       CLEAR     58  25  28 W5        30.33R
BARSTOW/DAGGET CLEAR     57  17  21 S3        30.28R
BISHOP         PTCLDY    49   5  16 SE5       30.31R
CHINA LAKE     CLEAR     52  28  39 W3        30.29R
EDWARDS AFB    CLEAR     56  22  26 NE7       30.27R
MOJAVE         FAIR      48  27  43 N9        30.30R
NEEDLES        CLEAR     63  22  20 N9        30.23R
VICTORVILLE    CLEAR     54   7  15 NE6       30.29R

$$

CAZ039-040-060400-
VENTURA AND SANTA BARBARA COUNTY COAST


CITY           SKY/WX    TMP DP  RH WIND       PRES   REMARKS
CAMARILLO      CLEAR     61  43  51 CALM      30.19S
OXNARD AIRPORT CLEAR     62  51  67 W5        30.19S
*POINT MUGU    CLEAR     61  46  57 N5        30.20S
SBA APT/GOLETA CLEAR     60  38  43 W3        30.19S
*SANTA BARBARA   N/A     66  29  25 CALM      30.26F
*VENTURA         N/A     61  34  36 CALM      30.23S

$$

CAZ044-045-060400-
VENTURA COUNTY VALLEYS


CITY           SKY/WX    TMP DP  RH WIND       PRES   REMARKS
*SIMI VALLEY     N/A     63  32  32 CALM      30.16R
*OJAI            N/A     52  39  61 CALM      30.17F
*FILLMORE        N/A     59  38  45 CALM      30.10S

$$

CAZ053-060400-
VENTURA COUNTY MOUNTAINS


CITY           SKY/WX    TMP DP  RH WIND       PRES   REMARKS
*LOCKWOOD VLY    N/A     37  16  41 MISG        N/A
*ROSE VALLEY     N/A     54  21  28 MISG        N/A

$$

CAZ034-035-036-060400-
CENTRAL COAST AND SANTA YNEZ VALLEY


CITY           SKY/WX    TMP DP  RH WIND       PRES   REMARKS
SAN LUIS OBISP CLEAR     59  38  45 NW3       30.22R
SANTA MARIA    CLEAR     58  49  72 CALM      30.23R

CITY           SKY/WX    TMP DP  RH WIND       PRES   REMARKS
*CAL POLY SLO    N/A     61  39  44 E3G13       N/A
*LOMPOC        CLEAR     57  39  51 W6        30.23S
*PISMO BEACH     N/A     60  42  50 NE2       30.21F
*SANTA YNEZ    FAIR      61  30  31 W3        30.22S

$$

CAZ037-038-051-060400-
SAN LUIS OBISPO COUNTY INTERIOR AND CUYAMA VALLEY


CITY           SKY/WX    TMP DP  RH WIND       PRES   REMARKS
*CUYAMA          N/A     56  37  49 CALM      30.27R
PASO ROBLES    CLEAR     58  35  42 NE6       30.24S

$$

CAZ032-033-061-060400-
SOUTHERN DESERTS


CITY           SKY/WX    TMP DP  RH WIND       PRES   REMARKS
BLYTHE         CLEAR     63  38  39 N9        30.19S
IMPERIAL       CLEAR     61  36  39 W3        30.17R
PALM SPRINGS   CLEAR     70  18  13 W5        30.22R
THERMAL        CLEAR     61  32  33 N3        30.17R

$$

ELSEWHERE ACROSS THE WESTERN UNITED STATES AND MEXICO


CITY           SKY/WX    TMP DP  RH WIND       PRES   REMARKS
DENVER, CO     PTCLDY    27  18  69 SW7       30.25R WCI  19
GRAND CANYON,  CLEAR     26  17  68 CALM      30.39R
HONOLULU, HI   MOSUNNY   72  61  68 N16       29.89R
KAHULUI, MAUI  PTSUNNY   75  61  60 NE18      29.90S
LAKE TAHOE, CA CLEAR     38  22  52 SW3       30.38R
LAS VEGAS, NV  CLEAR     60  23  24 S6        30.27R
MAMMOTH LAKES, FAIR      34   7  32 W9        30.40R WCI  26
MEXICO CITY, M PTCLDY    59  46  63 NW17      30.34R
PHOENIX, AZ    CLEAR     66  31  27 SW3       30.16R
PORTLAND, OR   MOCLDY    52  34  50 CALM      30.34R
RENO, NV       PTCLDY    50  21  32 N8        30.36R
SALT LAKE CITY PTCLDY    41  21  44 E5        30.41S
SAN DIEGO, CA  CLEAR     66  29  24 N9        30.16R
SAN FRANCISCO, CLEAR     64  41  42 NW7       30.27R
SAN JOSE, CA   CLEAR     61  43  51 W7        30.26R
SEATTLE, WA    CLOUDY    50  32  50 CALM      30.38R
TIJUANA, MEX   CLEAR     63  37  39 NW6       30.17R

$$

STATION/POSITION TIME  TEMP    WIND        PRES    VSBY  WAVE
                       AIR SEA DIR/SP/G                  HT/PER
                 (UTC) (F)     (DEG/KT/KT) (MB)    (MI)  (FT/S)
POINT ARGUELLO B NOT AVBL
WEST SANTA BARBA 0300   60 60  320/ 10/ 12 1022.3F         4/15
POINT CONCEPTION NOT AVBL
EAST SANTA BARBA NOT AVBL
SANTA MONICA BAY 0300   62 62  320/ 10/ 12 1022.3S         3/15


USA.gov is the U.S. government's official web portal to all federal, state and local government web resources and services.